EWG449 LGKF-LBBG

Flight info

Callsign EWG449
Flight time N/A
Altitude 33000
Route GARTA DCT TSL/N0434F320 UM987 ATFIR T516 PDV/N0426F330 T517 RUEXX
Aircraft A320/M-SDE3FGHIRWY/LB1

Departure

Time 2026-04-30 14:28
Airport Kefallinia Airport (LGKF)

Arrival

Time N/A
Airport Burgas Airport (LBBG)
Time Latitude Longitude Altitude Speed Heading
2026-04-30 13:54 38.11955 20.50363 60 ft 0 kts 56°
2026-04-30 13:54 38.11956 20.50363 60 ft 0 kts 56°
2026-04-30 13:54 38.11955 20.50363 59 ft 0 kts 56°
2026-04-30 14:16 38.11955 20.50362 68 ft 2 kts 56°
2026-04-30 14:17 38.11945 20.50344 60 ft 2 kts 56°
2026-04-30 14:17 38.11936 20.50326 58 ft 2 kts 56°
2026-04-30 14:17 38.11926 20.50308 61 ft 2 kts 82°
2026-04-30 14:17 38.11928 20.50289 59 ft 0 kts 142°
2026-04-30 14:23 38.11917 20.50299 64 ft 10 kts 145°
2026-04-30 14:24 38.11700 20.50334 65 ft 18 kts 170°
2026-04-30 14:24 38.11591 20.50409 63 ft 18 kts 145°
2026-04-30 14:25 38.11293 20.50666 57 ft 39 kts 147°
2026-04-30 14:25 38.11102 20.50799 57 ft 1 kts 325°
2026-04-30 14:26 38.11138 20.50776 54 ft 1 kts 327°
2026-04-30 14:26 38.11141 20.50774 54 ft 0 kts 327°
2026-04-30 14:27 38.11143 20.50772 53 ft 3 kts 327°
2026-04-30 14:27 38.11317 20.50624 57 ft 65 kts 327°
2026-04-30 14:27 38.11903 20.50129 65 ft 138 kts 326°
2026-04-30 14:28 38.13922 20.48391 1233 ft 183 kts 324°
2026-04-30 14:28 38.14976 20.47475 1984 ft 185 kts 323°
2026-04-30 14:28 38.16080 20.46467 2333 ft 204 kts 323°
2026-04-30 14:28 38.17286 20.45357 2748 ft 223 kts 323°
2026-04-30 14:29 38.19932 20.42936 4045 ft 250 kts 322°
2026-04-30 14:29 38.22339 20.40755 5495 ft 258 kts 322°
2026-04-30 14:30 38.27949 20.38418 8258 ft 288 kts 17°
2026-04-30 14:31 38.31323 20.41464 9890 ft 304 kts 35°
2026-04-30 14:31 38.34789 20.45006 10655 ft 342 kts 35°
2026-04-30 14:31 38.36695 20.46947 11116 ft 355 kts 35°
2026-04-30 14:32 38.40600 20.50919 12536 ft 362 kts 34°
2026-04-30 14:32 38.42592 20.52942 13269 ft 366 kts 34°
2026-04-30 14:32 38.44605 20.54983 13965 ft 371 kts 34°
2026-04-30 14:33 38.46618 20.57022 14581 ft 374 kts 34°
2026-04-30 14:33 38.50742 20.61211 15816 ft 381 kts 34°
2026-04-30 14:33 38.52795 20.63304 16427 ft 384 kts 34°
2026-04-30 14:34 38.54896 20.65448 17043 ft 387 kts 34°
2026-04-30 14:34 38.57010 20.67604 17642 ft 391 kts 34°
2026-04-30 14:34 38.59155 20.69790 18256 ft 394 kts 34°
2026-04-30 14:34 38.60580 20.71243 18613 ft 397 kts 34°
2026-04-30 14:35 38.64932 20.75692 19639 ft 404 kts 34°
2026-04-30 14:35 38.67144 20.77962 20188 ft 406 kts 34°
2026-04-30 14:35 38.69329 20.80206 20731 ft 409 kts 34°
2026-04-30 14:36 38.71565 20.82503 21271 ft 412 kts 35°
2026-04-30 14:36 38.73806 20.84805 21800 ft 415 kts 35°
2026-04-30 14:36 38.76077 20.87134 22336 ft 418 kts 35°
2026-04-30 14:36 38.78362 20.89478 22839 ft 421 kts 35°
2026-04-30 14:37 38.80647 20.91827 23019 ft 422 kts 35°
2026-04-30 14:37 38.82910 20.94162 23056 ft 422 kts 35°
2026-04-30 14:37 38.85210 20.96535 23049 ft 421 kts 35°
2026-04-30 14:37 38.87475 20.98871 23044 ft 421 kts 35°
2026-04-30 14:38 38.89769 21.01241 23048 ft 422 kts 35°
2026-04-30 14:38 38.92054 21.03605 23045 ft 422 kts 35°
2026-04-30 14:38 38.94343 21.05975 23046 ft 421 kts 35°
2026-04-30 14:38 38.96631 21.08343 23053 ft 422 kts 35°
2026-04-30 14:39 38.98918 21.10711 23044 ft 422 kts 35°
2026-04-30 14:39 39.01210 21.13081 23039 ft 422 kts 35°
2026-04-30 14:39 39.03471 21.15420 23035 ft 422 kts 35°
2026-04-30 14:40 39.08043 21.20172 23033 ft 422 kts 35°
2026-04-30 14:40 39.10322 21.22546 23030 ft 421 kts 35°
2026-04-30 14:40 39.12611 21.24931 23294 ft 424 kts 35°
2026-04-30 14:40 39.14921 21.27340 23803 ft 427 kts 35°
2026-04-30 14:41 39.17216 21.29735 24192 ft 429 kts 35°
2026-04-30 14:41 39.19568 21.32190 24580 ft 432 kts 35°
2026-04-30 14:41 39.21882 21.34606 24975 ft 434 kts 35°
2026-04-30 14:41 39.24238 21.37066 25351 ft 436 kts 35°
2026-04-30 14:42 39.26614 21.39545 25717 ft 438 kts 35°
2026-04-30 14:42 39.28990 21.42028 26071 ft 440 kts 35°
2026-04-30 14:42 39.31347 21.44496 26429 ft 442 kts 35°
2026-04-30 14:42 39.33746 21.47014 26774 ft 444 kts 34°
2026-04-30 14:43 39.36163 21.49554 27085 ft 447 kts 35°
2026-04-30 14:43 39.38588 21.52107 27381 ft 449 kts 35°
2026-04-30 14:43 39.40986 21.54636 27732 ft 451 kts 35°
2026-04-30 14:43 39.43434 21.57219 28077 ft 453 kts 35°
2026-04-30 14:44 39.45884 21.59806 28407 ft 455 kts 35°
2026-04-30 14:44 39.48345 21.62405 28737 ft 457 kts 35°
2026-04-30 14:44 39.50827 21.65023 29056 ft 459 kts 35°
2026-04-30 14:44 39.53281 21.67615 29329 ft 462 kts 34°
2026-04-30 14:45 39.55773 21.70247 29626 ft 464 kts 34°
2026-04-30 14:45 39.58297 21.72917 29921 ft 465 kts 34°
2026-04-30 14:45 39.60803 21.75575 30164 ft 467 kts 35°
2026-04-30 14:45 39.63335 21.78261 30391 ft 469 kts 35°
2026-04-30 14:46 39.65839 21.80921 30597 ft 471 kts 34°
2026-04-30 14:46 39.68398 21.83645 30787 ft 474 kts 34°
2026-04-30 14:46 39.70963 21.86379 30988 ft 476 kts 34°
2026-04-30 14:46 39.73501 21.89087 31235 ft 476 kts 34°
2026-04-30 14:47 39.76062 21.91826 31538 ft 476 kts 35°
2026-04-30 14:47 39.78702 21.94653 31834 ft 475 kts 35°
2026-04-30 14:47 39.81170 21.97294 32105 ft 474 kts 35°
2026-04-30 14:47 39.83727 22.00025 32361 ft 474 kts 35°
2026-04-30 14:48 39.86253 22.02721 32609 ft 475 kts 34°
2026-04-30 14:48 39.88818 22.05467 32874 ft 475 kts 34°
2026-04-30 14:48 39.91372 22.08204 32982 ft 472 kts 34°
2026-04-30 14:48 39.93900 22.10926 33003 ft 467 kts 34°
2026-04-30 14:49 39.98855 22.16272 33008 ft 463 kts 35°
2026-04-30 14:49 40.03835 22.21642 33010 ft 464 kts 34°
2026-04-30 14:50 40.11307 22.29697 33030 ft 465 kts 34°
2026-04-30 14:51 40.18776 22.37779 33051 ft 465 kts 34°
2026-04-30 14:52 40.26238 22.45897 33039 ft 466 kts 34°
2026-04-30 14:52 40.33733 22.54067 33049 ft 466 kts 34°
2026-04-30 14:53 40.41181 22.62213 33054 ft 466 kts 33°
2026-04-30 14:54 40.51103 22.73110 33044 ft 466 kts 33°
2026-04-30 14:55 40.58574 22.81338 33038 ft 467 kts 34°
2026-04-30 14:56 40.68537 22.92325 33080 ft 468 kts 33°
2026-04-30 14:57 40.76013 23.00626 33060 ft 468 kts 33°
2026-04-30 14:58 40.85955 23.11690 33048 ft 468 kts 33°
2026-04-30 14:58 40.93428 23.20034 33032 ft 468 kts 33°
2026-04-30 15:00 41.05630 23.34474 33046 ft 474 kts 37°
2026-04-30 15:01 41.15187 23.46462 33023 ft 472 kts 36°
2026-04-30 15:01 41.22401 23.55347 33024 ft 473 kts 36°
2026-04-30 15:02 41.27236 23.61328 33021 ft 474 kts 36°
2026-04-30 15:03 41.39283 23.76373 33038 ft 479 kts 38°
2026-04-30 15:04 41.49979 23.93792 33067 ft 488 kts 45°
2026-04-30 15:05 41.56223 24.04579 33083 ft 497 kts 56°
2026-04-30 15:06 41.59500 24.12752 33088 ft 499 kts 58°
2026-04-30 15:07 41.65836 24.29521 33151 ft 506 kts 59°
2026-04-30 15:08 41.72309 24.46205 33163 ft 505 kts 57°
2026-04-30 15:08 41.77104 24.58797 33153 ft 512 kts 68°
2026-04-30 15:09 41.79263 24.67903 33157 ft 513 kts 70°
2026-04-30 15:10 41.83470 24.86255 33169 ft 515 kts 70°
2026-04-30 15:11 41.87646 25.04617 33035 ft 514 kts 70°
2026-04-30 15:11 41.89723 25.13771 31795 ft 509 kts 70°
2026-04-30 15:12 41.92756 25.27234 30238 ft 497 kts 71°
2026-04-30 15:13 41.94729 25.36064 29169 ft 488 kts 71°
2026-04-30 15:14 41.98529 25.53160 27211 ft 468 kts 72°
2026-04-30 15:14 42.01281 25.65589 25826 ft 455 kts 72°
2026-04-30 15:16 42.05640 25.85469 23799 ft 433 kts 73°
2026-04-30 15:17 42.08959 26.00722 21964 ft 418 kts 73°
2026-04-30 15:18 42.12676 26.17934 19965 ft 402 kts 73°
2026-04-30 15:19 42.14988 26.28659 18740 ft 393 kts 73°